Time,TemperatureF,DewpointF,PressureIn,WindDirection,WindDirectionDegrees,WindSpeedMPH,WindSpeedGustMPH,Humidity,HourlyPrecipIn,Conditions,Clouds,dailyrainin,SolarRadiationWatts/m^2,SoftwareType,DateUTC
2013-09-16 00:13:00,71.0,33.0,-100.00,North,351,4.0,9.0,25,0.00,,,0.00,0.000000,,2013-09-16 04:13:00,
2013-09-16 00:24:00,71.0,33.0,-100.00,North,351,4.0,9.0,25,0.00,,,0.00,0.000000,,2013-09-16 04:24:00,
2013-09-16 02:22:00,67.0,35.0,-100.00,North,355,4.0,6.0,30,-99.99,,,0.00,0.000000,,2013-09-16 06:22:00,
2013-09-16 02:52:00,67.0,35.0,-100.00,WSW,252,5.0,6.0,31,0.00,,,0.00,0.000000,,2013-09-16 06:52:00,
2013-09-16 03:02:00,67.0,35.0,-100.00,WSW,252,5.0,6.0,31,0.00,,,0.00,0.000000,,2013-09-16 07:02:00,
2013-09-16 03:11:00,67.0,35.0,-100.00,WSW,252,5.0,6.0,31,0.00,,,0.00,0.000000,,2013-09-16 07:11:00,
2013-09-16 03:21:00,67.0,35.0,-100.00,WSW,252,5.0,6.0,31,0.00,,,0.00,0.000000,,2013-09-16 07:21:00,
2013-09-16 03:52:00,66.0,35.0,-100.00,South,186,5.0,7.0,32,0.00,,,0.00,0.000000,,2013-09-16 07:52:00,
2013-09-16 04:02:00,66.0,35.0,-100.00,South,186,5.0,7.0,32,0.00,,,0.00,0.000000,,2013-09-16 08:02:00,
2013-09-16 04:21:00,66.0,35.0,-100.00,South,186,5.0,7.0,32,0.00,,,0.00,0.000000,,2013-09-16 08:21:00,
2013-09-16 07:22:00,61.0,41.0,-100.00,ENE,72,7.0,10.0,48,0.00,,,0.00,0.000000,,2013-09-16 11:22:00,
2013-09-16 08:22:00,61.0,40.0,-100.00,WNW,285,7.0,10.0,45,-99.99,,,0.00,0.000000,,2013-09-16 12:22:00,
2013-09-16 09:52:00,61.0,38.0,-100.00,NW,309,7.0,9.0,43,0.00,,,0.00,0.000000,,2013-09-16 13:52:00,
2013-09-16 10:02:00,61.0,38.0,-100.00,NW,309,7.0,9.0,43,0.00,,,0.00,0.000000,,2013-09-16 14:02:00,
2013-09-16 10:21:00,61.0,38.0,-100.00,NW,309,7.0,9.0,43,0.00,,,0.00,0.000000,,2013-09-16 14:21:00,
2013-09-16 10:52:00,66.0,35.0,-100.00,East,101,5.0,10.0,32,-99.99,,,0.00,12.000000,,2013-09-16 14:52:00,
2013-09-16 11:02:00,66.0,35.0,-100.00,East,101,5.0,10.0,32,-99.99,,,0.00,12.000000,,2013-09-16 15:02:00,
2013-09-16 11:11:00,66.0,35.0,-100.00,East,101,5.0,10.0,32,-99.99,,,0.00,12.000000,,2013-09-16 15:11:00,
2013-09-16 11:22:00,66.0,35.0,-100.00,East,101,5.0,10.0,32,-99.99,,,0.00,12.000000,,2013-09-16 15:22:00,
2013-09-16 11:53:00,72.0,33.0,-100.00,ESE,114,5.0,8.0,24,0.00,,,0.00,220.000000,,2013-09-16 15:53:00,
2013-09-16 12:03:00,72.0,33.0,-100.00,ESE,114,5.0,8.0,24,0.00,,,0.00,220.000000,,2013-09-16 16:03:00,
2013-09-16 12:12:00,72.0,33.0,-100.00,ESE,114,5.0,8.0,24,0.00,,,0.00,220.000000,,2013-09-16 16:12:00,
2013-09-16 12:23:00,72.0,33.0,-100.00,ESE,114,5.0,8.0,24,0.00,,,0.00,220.000000,,2013-09-16 16:23:00,
2013-09-16 12:52:00,81.0,32.0,-100.00,SE,130,0.0,8.0,17,0.00,,,0.00,453.000000,,2013-09-16 16:52:00,
2013-09-16 13:02:00,81.0,32.0,-100.00,SE,130,0.0,8.0,17,0.00,,,0.00,453.000000,,2013-09-16 17:02:00,
2013-09-16 13:12:00,81.0,32.0,-100.00,SE,130,0.0,8.0,17,0.00,,,0.00,453.000000,,2013-09-16 17:12:00,
2013-09-16 13:23:00,81.0,32.0,-100.00,SE,130,0.0,8.0,17,0.00,,,0.00,453.000000,,2013-09-16 17:23:00,
2013-09-16 13:53:00,81.0,27.0,-100.00,SE,136,9.0,18.0,14,0.00,,,0.00,676.000000,,2013-09-16 17:53:00,
2013-09-16 14:02:00,81.0,27.0,-100.00,SE,136,9.0,18.0,14,0.00,,,0.00,676.000000,,2013-09-16 18:02:00,
2013-09-16 14:12:00,81.0,27.0,-100.00,SE,136,9.0,18.0,14,0.00,,,0.00,676.000000,,2013-09-16 18:12:00,
2013-09-16 14:22:00,81.0,27.0,-100.00,SE,136,9.0,18.0,14,0.00,,,0.00,676.000000,,2013-09-16 18:22:00,
2013-09-16 14:52:00,83.0,29.0,-100.00,ESE,118,9.0,27.0,14,0.00,,,0.00,865.000000,,2013-09-16 18:52:00,
2013-09-16 15:01:00,83.0,29.0,-100.00,ESE,118,9.0,27.0,14,0.00,,,0.00,865.000000,,2013-09-16 19:01:00,
2013-09-16 15:11:00,83.0,29.0,-100.00,ESE,118,9.0,27.0,14,0.00,,,0.00,865.000000,,2013-09-16 19:11:00,
2013-09-16 15:22:00,83.0,29.0,-100.00,ESE,118,9.0,27.0,14,0.00,,,0.00,865.000000,,2013-09-16 19:22:00,
2013-09-16 15:53:00,85.0,29.0,-100.00,ESE,117,11.0,29.0,13,0.00,,,0.00,967.000000,,2013-09-16 19:53:00,
2013-09-16 16:03:00,85.0,29.0,-100.00,ESE,117,11.0,29.0,13,0.00,,,0.00,967.000000,,2013-09-16 20:03:00,
2013-09-16 16:11:00,85.0,29.0,-100.00,ESE,117,11.0,29.0,13,0.00,,,0.00,967.000000,,2013-09-16 20:11:00,
2013-09-16 16:22:00,85.0,29.0,-100.00,ESE,117,11.0,29.0,13,0.00,,,0.00,967.000000,,2013-09-16 20:22:00,
2013-09-16 16:52:00,85.0,29.0,-100.00,ESE,111,15.0,29.0,13,0.00,,,0.00,1000.000000,,2013-09-16 20:52:00,
2013-09-16 17:02:00,85.0,29.0,-100.00,ESE,111,15.0,29.0,13,0.00,,,0.00,1000.000000,,2013-09-16 21:02:00,
2013-09-16 17:11:00,85.0,29.0,-100.00,ESE,111,15.0,29.0,13,0.00,,,0.00,1000.000000,,2013-09-16 21:11:00,
2013-09-16 17:21:00,85.0,29.0,-100.00,ESE,111,15.0,29.0,13,0.00,,,0.00,1000.000000,,2013-09-16 21:21:00,
2013-09-16 17:56:00,87.0,26.0,-100.00,ESE,123,11.0,27.0,11,0.00,,,0.00,965.000000,,2013-09-16 21:56:00,
2013-09-16 18:04:00,87.0,26.0,-100.00,ESE,123,11.0,27.0,11,0.00,,,0.00,965.000000,,2013-09-16 22:04:00,
2013-09-16 18:13:00,87.0,26.0,-100.00,ESE,123,11.0,27.0,11,0.00,,,0.00,965.000000,,2013-09-16 22:13:00,
2013-09-16 18:24:00,87.0,26.0,-100.00,ESE,123,11.0,27.0,11,0.00,,,0.00,965.000000,,2013-09-16 22:24:00,
2013-09-16 18:53:00,86.0,25.0,-100.00,ESE,116,7.0,19.0,11,0.00,,,0.00,858.000000,,2013-09-16 22:53:00,
2013-09-16 19:02:00,86.0,25.0,-100.00,ESE,116,7.0,19.0,11,0.00,,,0.00,858.000000,,2013-09-16 23:02:00,
2013-09-16 19:12:00,86.0,25.0,-100.00,ESE,116,7.0,19.0,11,0.00,,,0.00,858.000000,,2013-09-16 23:12:00,
2013-09-16 19:22:00,86.0,25.0,-100.00,ESE,116,7.0,19.0,11,0.00,,,0.00,858.000000,,2013-09-16 23:22:00,
2013-09-16 19:53:00,86.0,25.0,-100.00,ESE,113,8.0,22.0,11,0.00,,,0.00,680.000000,,2013-09-16 23:53:00,
2013-09-16 20:02:00,86.0,25.0,-100.00,ESE,113,8.0,22.0,11,0.00,,,0.00,680.000000,,2013-09-17 00:02:00,
2013-09-16 20:11:00,86.0,25.0,-100.00,ESE,113,8.0,22.0,11,0.00,,,0.00,680.000000,,2013-09-17 00:11:00,
2013-09-16 20:21:00,86.0,25.0,-100.00,ESE,113,8.0,22.0,11,0.00,,,0.00,680.000000,,2013-09-17 00:21:00,
2013-09-16 20:52:00,86.0,27.0,-100.00,WNW,299,8.0,21.0,12,0.00,,,0.00,458.000000,,2013-09-17 00:52:00,
2013-09-16 21:02:00,86.0,27.0,-100.00,WNW,299,8.0,21.0,12,0.00,,,0.00,458.000000,,2013-09-17 01:02:00,
2013-09-16 21:11:00,86.0,27.0,-100.00,WNW,299,8.0,21.0,12,0.00,,,0.00,458.000000,,2013-09-17 01:11:00,
2013-09-16 21:21:00,86.0,27.0,-100.00,WNW,299,8.0,21.0,12,0.00,,,0.00,458.000000,,2013-09-17 01:21:00,
2013-09-16 21:52:00,79.0,27.0,-100.00,WNW,289,9.0,18.0,15,0.00,,,0.00,195.000000,,2013-09-17 01:52:00,
2013-09-16 22:03:00,79.0,27.0,-100.00,WNW,289,9.0,18.0,15,0.00,,,0.00,195.000000,,2013-09-17 02:03:00,
2013-09-16 22:11:00,79.0,27.0,-100.00,WNW,289,9.0,18.0,15,0.00,,,0.00,195.000000,,2013-09-17 02:11:00,
2013-09-16 22:22:00,79.0,27.0,-100.00,WNW,289,9.0,18.0,15,0.00,,,0.00,195.000000,,2013-09-17 02:22:00,
2013-09-16 22:52:00,74.0,30.0,-100.00,ENE,72,7.0,14.0,20,0.00,,,0.00,7.000000,,2013-09-17 02:52:00,
2013-09-16 23:02:00,74.0,30.0,-100.00,ENE,72,7.0,14.0,20,0.00,,,0.00,7.000000,,2013-09-17 03:02:00,
2013-09-16 23:11:00,74.0,30.0,-100.00,ENE,72,7.0,14.0,20,0.00,,,0.00,7.000000,,2013-09-17 03:11:00,
2013-09-16 23:23:00,74.0,30.0,-100.00,ENE,72,7.0,14.0,20,0.00,,,0.00,7.000000,,2013-09-17 03:23:00,